RADUGA 22 [-]

Last updated on July 6, 2021, 3:35 p.m. UTC

1 19596U 88095A   21186.51464932  .00000036  00000-0  00000+0 0  9990
2 19596  13.7460 343.8098 0006672 107.1351  74.3393  1.00378639103579
UTC
Height (km)
Latitude
Longitude
Inclination
Orbital Period
UTC large
Height (km)
Speed (km/s)
/
Latitude / Longitude
Inclination (degrees)
Orbital Period (minutes)
Azimuth
Elevation
Range (km)
Doppler Factor
iOS Compass Heading
iOS Angle